Location: Drocourt
(49.0571°N, 1.7669°E)
Time: 19:29:32
(UTC+00:00)

S-56A Canister/Altair - Pass Details

Date: 14 April 2024
Orbit: 638 x 2488 km, 38.9° (Epoch: 20 May)

Event Time Altitude Azimuth Distance (km) Brightness Sun altitude
Rises 00:50:34 0° 275° (W) 5,121 11.6 -30.1°
Reaches altitude 10° 00:54:32 10° 263° (W) 4,396 11.1 -29.9°
Enters shadow 00:55:55 13° 257° (WSW) 4,197 11.0 -29.8°
Maximum altitude 01:03:34 24° 216° (SW) 3,814 - -29.4°
Drops below altitude 10° 01:14:02 10° 171° (S) 5,125 - -28.8°
Sets 01:19:14 0° 159° (SSE) 6,145 - -28.4°
